DW8293 Weather Reports


Display with metric or nautical units.
time (UTC)temp
F
wind
direction
speed
MPH
gust
MPH
rain 1hr
in
rain 24hr
in
rain mn
in
humidity
%
barometer
mb
20260906235405 46 0 0.0 0.0 0.00 0.01 0.00 98 1012.2
20260906234505 47 0 0.0 0.0 0.00 0.01 0.00 97 1012.4
20260906233603 46 142 0.0 2.0 0.00 0.01 0.00 97 1012.5
20260906232704 46 180 1.0 2.0 0.00 0.01 0.00 96 1012.5
20260906231805 48 225 0.0 2.0 0.00 0.01 0.00 96 1012.4
20260906230903 48 225 0.0 2.0 0.00 0.01 0.00 97 1012.6
20260906230005 48 225 0.0 2.0 0.00 0.01 0.00 96 1012.6
20260906225403 48 0 0.0 0.0 0.00 0.01 0.00 96 1012.6
20260906224503 49 0 0.0 0.0 0.00 0.01 0.00 96 1012.4
20260906223603 48 247 0.0 2.0 0.00 0.01 0.00 95 1012.4
20260906222705 47 0 0.0 0.0 0.00 0.01 0.00 94 1012.4
20260906221803 48 0 0.0 0.0 0.00 0.01 0.00 94 1012.3
20260906220905 49 247 0.0 2.0 0.00 0.01 0.00 94 1012.4
20260906220003 48 0 0.0 0.0 0.00 0.01 0.00 93 1012.4
20260906215403 48 0 0.0 0.0 0.00 0.01 0.01 93 1012.6
20260906214524 48 0 0.0 0.0 0.00 0.01 0.01 92 1012.4
20260906213605 48 247 0.0 2.0 0.00 0.01 0.01 92 1012.4
20260906212703 48 247 0.0 2.0 0.00 0.01 0.01 91 1012.3
20260906211803 48 247 0.0 2.0 0.00 0.01 0.01 90 1012.3
20260906210924 49 247 0.0 2.0 0.00 0.01 0.01 89 1012.2
20260906210004 51 247 0.0 2.0 0.00 0.01 0.01 89 1012.4
20260906205403 51 247 0.0 2.0 0.00 0.01 0.01 89 1012.2
20260906204505 51 247 1.0 2.0 0.00 0.01 0.01 89 1012.4
20260906203605 51 247 1.0 2.0 0.00 0.01 0.01 88 1012.3
20260906202703 50 0 0.0 0.0 0.00 0.01 0.01 89 1012.2
20260906201805 50 0 0.0 0.0 0.00 0.01 0.01 88 1012.2
20260906200924 51 247 0.0 2.0 0.00 0.01 0.01 87 1012.2
20260906200004 51 247 1.0 2.0 0.00 0.01 0.01 85 1012.3
20260906195424 51 247 0.0 2.0 0.00 0.01 0.01 86 1012.3
20260906194506 51 247 0.0 2.0 0.00 0.01 0.01 84 1012.2
20260906193605 53 247 1.0 2.0 0.00 0.01 0.01 85 1012.2
20260906192724 53 247 2.0 2.0 0.00 0.01 0.01 83 1012.0
20260906191803 53 247 0.0 2.0 0.00 0.01 0.01 84 1012.1
20260906190903 54 247 0.0 2.0 0.00 0.01 0.01 82 1012.0
20260906190026 54 0 0.0 0.0 0.00 0.01 0.01 80 1012.0
20260906185405 54 0 0.0 0.0 0.00 0.01 0.01 78 1012.0
20260906184526 55 0 0.0 0.0 0.00 0.01 0.01 78 1012.0
20260906183605 55 0 0.0 0.0 0.00 0.01 0.01 77 1011.8
20260906182703 57 247 0.0 2.0 0.00 0.01 0.01 73 1012.0
20260906181805 59 247 2.0 2.0 0.00 0.01 0.01 64 1012.0
20260906180903 60 247 2.0 2.0 0.00 0.01 0.01 64 1011.8
20260906180003 59 247 2.0 2.0 0.00 0.01 0.01 66 1011.6
20260906175403 59 247 2.0 2.0 0.00 0.01 0.01 67 1011.7
20260906174524 60 247 2.0 2.0 0.00 0.01 0.01 65 1011.6
20260906173603 61 247 2.0 2.0 0.00 0.01 0.01 64 1011.7
20260906172705 60 247 2.0 2.0 0.00 0.01 0.01 65 1011.7
20260906171806 62 247 0.0 2.0 0.00 0.01 0.01 62 1011.5
20260906170903 63 247 0.0 2.0 0.00 0.01 0.01 57 1011.4
20260906170005 65 247 1.0 2.0 0.00 0.01 0.01 52 1011.2
20260906165405 65 247 2.0 2.0 0.00 0.01 0.01 50 1011.1
20260906164503 67 246 1.0 4.0 0.00 0.01 0.01 49 1011.2
20260906163606 68 242 2.0 4.0 0.00 0.01 0.01 48 1011.4
20260906162703 69 270 2.0 4.0 0.00 0.02 0.01 45 1011.4
20260906161803 68 268 2.0 4.0 0.00 0.02 0.01 46 1011.3
20260906160903 69 270 2.0 4.0 0.00 0.02 0.01 45 1011.3
20260906160005 69 270 1.0 4.0 0.00 0.02 0.01 46 1011.4
20260906155405 70 275 2.0 6.0 0.00 0.02 0.01 44 1011.4
20260906154503 68 284 3.0 6.0 0.00 0.02 0.01 45 1011.3
20260906153603 69 295 2.0 4.0 0.00 0.02 0.01 45 1011.4
20260906152703 69 284 3.0 6.0 0.00 0.02 0.01 44 1011.3
20260906151806 68 280 3.0 7.0 0.00 0.02 0.01 45 1011.3
20260906150903 70 290 2.0 6.0 0.00 0.02 0.01 43 1011.1
20260906150003 69 284 2.0 4.0 0.00 0.02 0.01 43 1011.3
20260906145405 67 289 2.0 4.0 0.00 0.02 0.01 46 1011.3
20260906144503 67 288 4.0 4.0 0.00 0.02 0.01 44 1011.1
20260906143603 68 284 2.0 4.0 0.00 0.02 0.01 45 1011.0
20260906142703 67 286 3.0 7.0 0.00 0.02 0.01 45 1010.9
20260906141826 66 288 2.0 7.0 0.00 0.02 0.01 47 1011.1
20260906140904 67 305 3.0 7.0 0.00 0.02 0.01 47 1011.1
20260906140005 67 305 4.0 7.0 0.00 0.02 0.01 46 1011.0
20260906135405 68 323 3.0 8.0 0.00 0.02 0.01 45 1011.1
20260906134503 67 317 2.0 9.0 0.00 0.02 0.01 45 1011.0
20260906133603 68 310 4.0 8.0 0.00 0.02 0.01 45 1011.1
20260906132705 67 316 2.0 9.0 0.00 0.02 0.01 46 1010.9
20260906131824 67 319 4.0 11.0 0.00 0.02 0.01 46 1010.9
20260906130926 69 309 4.0 11.0 0.00 0.02 0.01 44 1010.9
20260906130024 68 312 4.0 11.0 0.00 0.02 0.01 44 1010.9
20260906125426 66 297 7.0 11.0 0.00 0.02 0.01 47 1010.9
20260906124503 67 296 8.0 15.0 0.00 0.02 0.01 44 1010.9
20260906123604 67 296 6.0 15.0 0.00 0.02 0.01 46 1010.7
20260906122724 66 306 5.0 14.0 0.00 0.02 0.01 47 1010.7
20260906121803 66 295 8.0 14.0 0.00 0.02 0.01 45 1010.6
20260906120905 67 291 4.0 11.0 0.00 0.02 0.01 46 1010.6
20260906120003 66 282 6.0 11.0 0.00 0.02 0.01 48 1010.4
20260906115405 67 293 7.0 9.0 0.00 0.02 0.01 48 1010.4
20260906114504 66 291 5.0 11.0 0.00 0.02 0.01 49 1010.5
20260906113624 67 295 4.0 13.0 0.00 0.02 0.01 51 1010.5
20260906112703 65 301 8.0 11.0 0.00 0.02 0.01 51 1010.5
20260906111803 65 290 6.0 11.0 0.00 0.02 0.01 54 1010.5
20260906110905 65 259 4.0 15.0 0.00 0.02 0.01 55 1010.4
20260906110003 65 284 4.0 8.0 0.00 0.02 0.01 57 1010.2
20260906105425 65 290 5.0 9.0 0.00 0.02 0.01 58 1010.0
20260906104505 64 303 7.0 9.0 0.00 0.02 0.01 57 1010.3
20260906103604 64 293 5.0 11.0 0.00 0.02 0.01 60 1010.4
20260906102726 64 310 4.0 8.0 0.00 0.02 0.01 60 1010.3
20260906101804 65 337 1.0 8.0 0.00 0.02 0.01 60 1010.1
20260906100903 65 325 2.0 8.0 0.00 0.02 0.01 59 1010.1
20260906100003 65 349 4.0 8.0 0.00 0.02 0.01 59 1010.0
20260906095403 64 328 4.0 8.0 0.00 0.02 0.01 58 1010.0
20260906094524 64 331 6.0 9.0 0.00 0.02 0.01 62 1010.0
20260906093603 63 326 3.0 8.0 0.00 0.02 0.01 65 1009.8
20260906092703 63 352 4.0 8.0 0.00 0.02 0.01 65 1009.8
20260906091804 62 343 2.0 7.0 0.00 0.02 0.01 67 1010.0
20260906090903 62 338 2.0 8.0 0.00 0.02 0.01 68 1009.9
20260906090003 61 326 2.0 8.0 0.00 0.02 0.01 70 1009.8
20260906085403 61 327 2.0 8.0 0.00 0.02 0.01 71 1009.9
20260906084506 61 337 4.0 6.0 0.00 0.02 0.01 71 1010.0
20260906083603 60 329 4.0 7.0 0.00 0.02 0.01 72 1009.7
20260906082703 60 332 4.0 7.0 0.00 0.02 0.01 73 1009.7
20260906081803 59 331 4.0 7.0 0.00 0.02 0.01 75 1009.7
20260906080904 58 345 4.0 7.0 0.00 0.02 0.01 76 1009.4
20260906080024 58 328 4.0 7.0 0.00 0.02 0.01 78 1009.3
20260906075403 57 327 3.0 7.0 0.00 0.02 0.01 79 1009.3
20260906074525 56 325 3.0 8.0 0.00 0.02 0.01 80 1009.4
20260906073603 55 326 5.0 7.0 0.00 0.02 0.01 82 1009.2
20260906072703 55 337 2.0 6.0 0.00 0.02 0.01 86 1009.1
20260906071825 54 5 2.0 6.0 0.00 0.02 0.01 88 1008.9
20260906070924 54 358 2.0 4.0 0.00 0.02 0.01 89 1008.9
20260906070005 53 22 2.0 4.0 0.00 0.02 0.01 91 1008.8
20260906065403 52 22 0.0 2.0 0.00 0.02 0.01 92 1008.8
20260906064505 52 22 0.0 2.0 0.00 0.02 0.01 93 1008.7
20260906063603 52 22 0.0 2.0 0.00 0.02 0.01 95 1008.6
20260906062703 50 22 0.0 2.0 0.00 0.02 0.01 99 1008.6
20260906061803 49 22 0.0 2.0 0.00 0.02 0.01 99 1008.4
20260906060904 48 21 1.0 2.0 0.00 0.02 0.01 99 1008.4
20260906060003 48 1 1.0 2.0 0.00 0.02 0.01 99 1008.5
20260906055403 47 360 0.0 2.0 0.00 0.02 0.01 99 1008.1
20260906054503 47 360 0.0 2.0 0.00 0.02 0.01 99 1008.3
20260906053603 47 0 0.0 0.0 0.00 0.02 0.01 99 1008.2
20260906052703 48 0 0.0 0.0 0.00 0.02 0.01 99 1007.9
20260906051804 46 0 0.0 0.0 0.00 0.02 0.01 99 1007.8
20260906050904 44 0 0.0 0.0 0.00 0.02 0.01 99 1007.7
20260906050003 43 0 0.0 0.0 0.00 0.02 0.01 99 1007.7
20260906045406 43 0 0.0 0.0 0.00 0.02 0.01 99 1007.7
20260906044504 43 360 0.0 2.0 0.00 0.02 0.01 99 1007.5
20260906043624 43 360 0.0 2.0 0.00 0.02 0.01 99 1007.4
20260906042704 41 360 0.0 2.0 0.00 0.02 0.01 99 1007.2
20260906041804 41 360 2.0 2.0 0.00 0.02 0.01 99 1007.0
20260906040903 40 0 0.0 0.0 0.00 0.02 0.01 99 1007.0
20260906040003 41 0 0.0 0.0 0.00 0.02 0.01 99 1006.8
20260906035424 40 0 0.0 0.0 0.00 0.02 0.01 99 1006.8
20260906034503 41 0 0.0 0.0 0.00 0.02 0.01 99 1006.8
20260906033603 40 0 0.0 0.0 0.00 0.02 0.01 99 1006.7
20260906032703 41 0 0.0 0.0 0.00 0.02 0.01 99 1006.6
20260906031803 41 0 0.0 0.0 0.00 0.02 0.01 99 1006.6
20260906030903 41 0 0.0 0.0 0.01 0.02 0.01 99 1006.6
20260906030005 41 0 0.0 0.0 0.01 0.02 0.01 99 1006.3
20260906025403 41 0 0.0 0.0 0.01 0.02 0.01 99 1006.1
20260906024504 42 0 0.0 0.0 0.01 0.02 0.01 99 1006.1
20260906023603 41 0 0.0 0.0 0.01 0.02 0.01 99 1006.2
20260906022703 42 0 0.0 0.0 0.01 0.02 0.01 99 1005.9
20260906021805 42 0 0.0 0.0 0.01 0.02 0.01 99 1005.8
20260906020903 42 0 0.0 0.0 0.00 0.01 0.00 99 1005.7
20260906020005 42 0 0.0 0.0 0.00 0.01 0.00 99 1005.8
20260906015405 42 0 0.0 0.0 0.00 0.01 0.00 99 1005.5
20260906014526 42 0 0.0 0.0 0.00 0.01 0.00 99 1005.6
20260906013604 43 0 0.0 0.0 0.00 0.01 0.00 99 1005.4
20260906012703 42 0 0.0 0.0 0.00 0.01 0.00 99 1005.3
20260906011805 43 360 0.0 2.0 0.00 0.01 0.00 99 1005.5
20260906010905 43 360 0.0 2.0 0.00 0.01 0.00 99 1005.1
20260906010005 45 360 2.0 2.0 0.00 0.01 0.00 99 1005.2
20260906005405 44 0 0.0 0.0 0.00 0.01 0.00 99 1005.3
20260906004503 45 360 0.0 2.0 0.00 0.01 0.00 99 1005.0
20260906003603 45 360 0.0 2.0 0.00 0.01 0.00 99 1004.9
20260906002703 45 0 0.0 0.0 0.00 0.01 0.00 99 1005.0
20260906001805 45 0 0.0 0.0 0.00 0.01 0.00 99 1004.8
20260906000903 45 0 0.0 0.0 0.00 0.01 0.00 99 1004.4
20260906000003 45 0 0.0 0.0 0.00 0.01 0.00 99 1004.6